WGS 10 (USA 291)

Last updated on Fri Jul 10 2026 00:03:06 GMT+0000 (Coordinated Universal Time)

1 44071U 19014A 26190.01049479 .00000061 00000+0 00000+0 0 9998 2 44071 0.0195 41.9504 0000139 209.8595 99.2261 1.00272238 26830
UTC large
Height (km)
Speed (km/s)
/
Latitude / Longitude
Inclination (degrees)
Orbital Period (minutes)
Azimuth
Elevation
Range (km)
Doppler Factor

Next 0 passes for location: London (51.5072 / 0.1276)

No passes found over London.
WGS 10 (USA 291)